N8QQ Weather Reports


time (UTC)temp
C
wind
direction
speed
KPH
gust
KPH
rain 1hr
cm
rain 24hr
cm
rain mn
cm
humidity
%
barometer
mb
20260509024049 13 172 3.2 6.4 0.00 0.00 0.00 84 1005.6
20260509023031 14 170 4.8 8.0 0.00 0.00 0.00 83 1005.7
20260509022016 15 266 0.0 3.2 0.00 0.00 0.00 79 1005.3
20260509021120 15 246 1.6 3.2 0.00 0.00 0.00 75 1005.1
20260509020023 15 0.0 0.0 0.00 0.00 0.00 72 1005.0
20260509015026 15 0.0 0.0 0.00 0.00 0.00 71 1004.8
20260509014049 15 0.0 0.0 0.00 0.00 0.00 72 1004.9
20260509013032 15 133 1.6 3.2 0.00 0.00 0.00 71 1005.3
20260509012138 16 224 1.6 6.4 0.00 0.00 0.00 70 1005.1
20260509011020 16 270 0.0 3.2 0.00 0.00 0.00 70 1005.0
20260509010023 16 0.0 0.0 0.00 0.00 0.00 65 1004.9
20260509005046 16 0.0 0.0 0.00 0.00 0.00 62 1004.8
20260509004029 17 0.0 0.0 0.00 0.00 0.00 59 1004.5
20260509003032 17 0.0 0.0 0.00 0.00 0.00 57 1004.5
20260509002017 17 0.0 0.0 0.00 0.00 0.00 56 1004.6
20260509001021 17 0.0 0.0 0.00 0.00 0.00 56 1004.6
20260509000024 17 202 0.0 3.2 0.00 0.00 0.00 55 1004.5
20260508235106 18 0.0 0.0 0.00 0.00 0.00 55 1004.4
20260508234018 18 0.0 0.0 0.00 0.00 0.00 56 1004.3
20260508233015 18 0.0 0.0 0.00 0.00 0.00 56 1004.5
20260508232018 18 0.0 1.6 0.00 0.00 0.00 55 1004.5
20260508231042 18 202 0.0 1.6 0.00 0.00 0.00 55 1004.5
20260508230029 18 213 0.0 4.8 0.00 0.00 0.00 53 1004.5
20260508225027 19 189 0.0 1.6 0.00 0.00 0.00 53 1004.5
20260508224031 19 207 1.6 3.2 0.00 0.00 0.00 50 1004.5
20260508223016 20 172 0.0 3.2 0.00 0.00 0.00 49 1004.4
20260508222018 20 190 3.2 8.0 0.00 0.00 0.00 48 1004.4
20260508221023 20 118 1.6 3.2 0.00 0.00 0.00 48 1004.4
20260508220026 20 300 0.0 3.2 0.00 0.00 0.00 49 1004.3
20260508215028 20 157 0.0 3.2 0.00 0.00 0.00 47 1004.3
20260508214032 20 212 1.6 6.4 0.00 0.00 0.00 46 1004.4
20260508213017 20 235 4.8 8.0 0.00 0.00 0.00 46 1004.4
20260508212020 20 181 1.6 4.8 0.00 0.00 0.00 46 1004.5
20260508211043 21 152 3.2 8.0 0.00 0.00 0.00 44 1004.7
20260508210026 21 236 3.2 6.4 0.00 0.00 0.00 45 1004.8
20260508205029 20 196 1.6 4.8 0.00 0.00 0.00 47 1005.3
20260508204107 20 130 3.2 6.4 0.00 0.00 0.00 46 1005.3
20260508203017 20 205 6.4 12.9 0.00 0.00 0.00 45 1005.6
20260508202020 20 190 1.6 4.8 0.00 0.00 0.00 46 1005.6
20260508201018 20 191 4.8 9.7 0.00 0.00 0.00 45 1005.7
20260508200027 21 298 1.6 6.4 0.00 0.00 0.00 46 1005.7
20260508195031 20 131 3.2 11.3 0.00 0.00 0.00 45 1005.8
20260508194054 20 249 3.2 8.0 0.00 0.00 0.00 43 1005.9
20260508193039 20 225 6.4 9.7 0.00 0.00 0.00 42 1005.9
20260508192021 21 146 3.2 6.4 0.00 0.00 0.00 44 1006.2
20260508191046 22 152 4.8 6.4 0.00 0.00 0.00 43 1006.2
20260508190028 22 206 4.8 9.7 0.00 0.00 0.00 42 1006.3
20260508185030 23 182 4.8 9.7 0.00 0.00 0.00 43 1006.4
20260508184017 23 112 6.4 8.0 0.00 0.00 0.00 41 1006.6
20260508183100 23 213 4.8 8.0 0.00 0.00 0.00 42 1006.9
20260508182023 22 211 3.2 6.4 0.00 0.00 0.00 43 1007.1
20260508181025 22 214 4.8 11.3 0.00 0.00 0.00 42 1007.2
20260508180028 23 126 3.2 8.0 0.00 0.00 0.00 42 1007.3
20260508175031 22 153 1.6 6.4 0.00 0.00 0.00 45 1007.3
20260508174058 21 220 4.8 9.7 0.00 0.00 0.00 45 1007.4
20260508173019 21 254 4.8 12.9 0.00 0.00 0.00 45 1007.8
20260508172023 21 7 4.8 9.7 0.00 0.00 0.00 45 1008.0
20260508171026 21 183 4.8 8.0 0.00 0.00 0.00 45 1008.2
20260508170023 21 260 8.0 12.9 0.00 0.00 0.00 44 1008.4
20260508165020 22 211 6.4 11.3 0.00 0.00 0.00 47 1008.7
20260508164017 21 217 4.8 8.0 0.00 0.00 0.00 45 1008.9
20260508163020 21 183 3.2 6.4 0.00 0.00 0.00 48 1009.0
20260508162024 21 192 3.2 9.7 0.00 0.00 0.00 48 1009.0
20260508161027 21 132 3.2 9.7 0.00 0.00 0.00 47 1009.1
20260508160030 21 147 3.2 6.4 0.00 0.00 0.00 49 1009.2
20260508155015 20 82 4.8 8.0 0.00 0.00 0.00 48 1009.4
20260508154038 21 246 3.2 6.4 0.00 0.00 0.00 48 1009.5
20260508153021 20 38 3.2 8.0 0.00 0.00 0.00 50 1009.6
20260508152024 19 217 4.8 11.3 0.00 0.00 0.00 50 1009.6
20260508151108 19 191 4.8 11.3 0.00 0.00 0.00 51 1009.7
20260508150031 19 228 4.8 11.3 0.00 0.00 0.00 50 1009.7
20260508145016 18 146 4.8 9.7 0.00 0.00 0.00 49 1009.8
20260508144019 18 188 4.8 8.0 0.00 0.00 0.00 51 1009.8
20260508143022 18 223 4.8 14.5 0.00 0.00 0.00 51 1010.0
20260508142025 17 222 6.4 9.7 0.00 0.00 0.00 50 1010.0
20260508141028 17 194 4.8 11.3 0.00 0.00 0.00 51 1010.0
20260508140032 17 248 6.4 12.9 0.00 0.00 0.00 50 1010.1
20260508135017 17 203 6.4 11.3 0.00 0.00 0.00 51 1010.1
20260508134020 16 195 4.8 9.7 0.00 0.00 0.00 51 1010.1
20260508133023 16 192 6.4 9.7 0.00 0.00 0.00 52 1010.0
20260508132020 16 213 4.8 9.7 0.00 0.00 0.00 52 1010.0
20260508131018 15 168 6.4 12.9 0.00 0.00 0.00 53 1010.0
20260508130033 16 89 4.8 11.3 0.00 0.00 0.00 51 1010.0
20260508125027 15 180 4.8 11.3 0.00 0.00 0.00 54 1010.0
20260508124030 13 125 3.2 4.8 0.00 0.00 0.00 58 1009.8
20260508123016 11 275 3.2 6.4 0.00 0.00 0.00 62 1010.0
20260508122019 10 179 3.2 4.8 0.00 0.00 0.00 64 1009.8
20260508121024 10 175 3.2 8.0 0.00 0.00 0.00 66 1009.8
20260508120019 9 174 3.2 9.7 0.00 0.00 0.00 67 1009.8
20260508115016 9 261 0.0 3.2 0.00 0.00 0.00 68 1009.9
20260508114031 9 202 0.0 1.6 0.00 0.00 0.00 67 1009.7
20260508113016 9 239 0.0 3.2 0.00 0.00 0.00 67 1009.5
20260508112039 9 217 1.6 3.2 0.00 0.00 0.00 66 1009.2
20260508111023 9 218 1.6 6.4 0.00 0.00 0.00 65 1009.2
20260508110026 9 141 0.0 3.2 0.00 0.00 0.00 66 1009.2
20260508105029 9 201 1.6 4.8 0.00 0.00 0.00 66 1009.5
20260508104032 9 116 1.6 4.8 0.00 0.00 0.00 66 1009.4
20260508103016 9 245 1.6 6.4 0.00 0.00 0.00 66 1009.2
20260508102020 9 186 1.6 6.4 0.00 0.00 0.00 67 1009.1
20260508101023 9 163 1.6 4.8 0.00 0.00 0.00 66 1009.2
20260508100027 9 210 1.6 4.8 0.00 0.00 0.00 67 1009.4
20260508095029 9 204 0.0 3.2 0.00 0.00 0.00 68 1009.4
20260508094032 8 198 1.6 8.0 0.00 0.00 0.00 68 1009.2
20260508093018 8 196 0.0 3.2 0.00 0.00 0.00 69 1009.2
20260508092022 8 116 0.0 3.2 0.00 0.00 0.00 70 1009.3
20260508091024 8 192 1.6 8.0 0.00 0.00 0.00 70 1009.3
20260508090027 7 150 0.0 6.4 0.00 0.00 0.00 71 1009.2
20260508085024 7 126 0.0 3.2 0.00 0.00 0.00 72 1009.2
20260508084015 7 0.0 0.0 0.00 0.00 0.00 73 1009.1
20260508083018 7 0.0 0.0 0.00 0.00 0.00 74 1009.4
20260508082015 7 0.0 0.0 0.00 0.00 0.00 73 1009.3
20260508081024 7 0.0 0.0 0.00 0.00 0.00 73 1009.1
20260508080028 7 0.0 0.0 0.00 0.00 0.00 73 1009.0
20260508075031 7 146 0.0 3.2 0.00 0.00 0.00 73 1009.2
20260508074016 7 0.0 0.0 0.00 0.00 0.00 73 1008.9
20260508073020 7 202 0.0 1.6 0.00 0.00 0.00 73 1009.0
20260508072022 7 164 0.0 1.6 0.00 0.00 0.00 72 1009.2
20260508071025 7 180 1.6 6.4 0.00 0.00 0.00 73 1009.3
20260508070048 6 164 0.0 4.8 0.00 0.00 0.00 74 1009.4
20260508065032 7 0.0 0.0 0.00 0.00 0.00 74 1009.5
20260508064017 7 0.0 0.0 0.00 0.00 0.00 74 1009.8
20260508063040 7 0.0 0.0 0.00 0.00 0.00 73 1009.9
20260508062043 6 202 0.0 4.8 0.00 0.00 0.00 73 1010.1
20260508061026 6 0.0 0.0 0.00 0.00 0.00 72 1010.1
20260508060029 7 0.0 0.0 0.00 0.00 0.00 71 1010.0
20260508055053 7 0.0 0.0 0.00 0.00 0.00 71 1010.0
20260508054023 7 0.0 0.0 0.00 0.00 0.00 70 1010.1
20260508053021 7 202 0.0 1.6 0.00 0.00 0.00 69 1010.1
20260508052045 7 0.0 0.0 0.00 0.00 0.00 70 1010.0
20260508051022 7 0.0 0.0 0.00 0.00 0.00 69 1009.8
20260508050019 7 0.0 0.0 0.00 0.00 0.00 69 1009.7
20260508045016 7 0.0 0.0 0.00 0.00 0.00 69 1009.9
20260508044019 7 0.0 0.0 0.00 0.00 0.00 69 1010.0
20260508043018 7 157 0.0 1.6 0.00 0.00 0.00 69 1009.9
20260508042039 7 0.0 1.6 0.00 0.00 0.00 69 1009.8
20260508041022 7 0.0 0.0 0.00 0.00 0.00 69 1009.6
20260508040026 7 0.0 0.0 0.00 0.00 0.00 71 1009.6
20260508035028 7 0.0 0.0 0.00 0.00 0.00 73 1009.6
20260508034031 6 0.0 0.0 0.00 0.00 0.00 74 1009.9
20260508033016 6 0.0 0.0 0.00 0.00 0.00 75 1009.8
20260508032100 6 0.0 0.0 0.00 0.00 0.00 76 1009.8
20260508031043 6 0.0 0.0 0.00 0.00 0.00 78 1009.7
20260508030026 7 0.0 0.0 0.00 0.00 0.00 78 1009.7
20260508025110 7 0.0 0.0 0.00 0.00 0.00 78 1009.8